FW7807 Weather Reports


time (UTC)temp
F
wind
direction
speed
knots
gust
knots
rain 1hr
in
rain 24hr
in
rain mn
in
humidity
%
barometer
mb
20260507001555 61 34 4.3 8.7 0.00 0.00 0.00 81 1010.9
20260507000041 61 32 3.5 7.0 0.00 0.00 0.00 81 1011.1
20260506234541 61 57 5.2 7.8 0.00 0.00 0.00 82 1011.2
20260506233044 62 36 3.5 5.2 0.00 0.00 0.00 82 1011.3
20260506231544 62 38 3.5 5.2 0.00 0.00 0.00 81 1011.2
20260506230037 62 46 2.6 4.3 0.00 0.00 0.00 82 1011.4
20260506224535 62 44 2.6 5.2 0.00 0.00 0.00 82 1011.3
20260506223058 62 45 3.5 5.2 0.00 0.00 0.00 81 1011.4
20260506221539 63 40 1.7 3.5 0.00 0.00 0.00 81 1011.3
20260506220038 63 84 2.6 5.2 0.00 0.00 0.00 81 1011.4
20260506214540 63 88 3.5 5.2 0.00 0.00 0.00 81 1011.5
20260506213038 64 100 2.6 3.5 0.00 0.00 0.00 81 1011.6
20260506211545 64 96 2.6 5.2 0.00 0.00 0.00 81 1011.8
20260506210042 64 89 2.6 6.1 0.00 0.00 0.00 81 1011.7
20260506204538 64 105 4.3 6.1 0.00 0.00 0.00 81 1011.5
20260506203043 64 98 3.5 7.8 0.00 0.00 0.00 81 1011.5
20260506201537 64 88 4.3 7.8 0.00 0.00 0.00 80 1011.2
20260506200108 64 90 4.3 7.8 0.00 0.00 0.00 80 1011.2
20260506194542 64 96 4.3 9.6 0.00 0.00 0.00 80 1011.0
20260506193040 64 107 5.2 8.7 0.00 0.00 0.00 80 1010.9
20260506191538 64 105 7.0 9.6 0.00 0.00 0.00 79 1010.8
20260506190038 65 132 5.2 11.3 0.00 0.00 0.00 79 1010.4
20260506184535 65 105 7.0 10.4 0.00 0.00 0.00 78 1010.4
20260506183041 65 101 8.7 11.3 0.00 0.00 0.00 78 1010.3
20260506181542 65 109 5.2 14.8 0.00 0.00 0.00 77 1010.1
20260506180048 65 119 10.4 14.8 0.00 0.00 0.00 77 1010.1
20260506174538 66 124 7.0 13.9 0.00 0.00 0.00 76 1010.2
20260506173037 66 104 11.3 15.6 0.00 0.00 0.00 75 1010.3
20260506171547 66 173 8.7 14.8 0.00 0.00 0.00 74 1010.2
20260506170042 66 110 10.4 18.2 0.00 0.00 0.00 73 1010.1
20260506164539 67 108 10.4 18.2 0.00 0.00 0.00 73 1009.8
20260506163046 67 109 12.2 17.4 0.00 0.00 0.00 73 1009.7
20260506161549 67 106 11.3 18.2 0.00 0.00 0.00 72 1009.8
20260506160037 67 144 11.3 21.7 0.00 0.00 0.00 71 1009.9
20260506154537 67 111 13.0 20.9 0.00 0.00 0.00 70 1009.8
20260506153043 68 115 14.8 20.9 0.00 0.00 0.00 71 1009.8
20260506151540 68 130 12.2 20.9 0.00 0.00 0.00 71 1009.8
20260506150038 68 135 13.0 20.0 0.00 0.00 0.00 70 1009.8
20260506144538 68 107 14.8 22.6 0.00 0.00 0.00 69 1010.1
20260506143042 68 104 13.9 22.6 0.00 0.00 0.00 70 1010.2
20260506141539 68 109 14.8 20.9 0.00 0.00 0.00 70 1010.2
20260506140045 68 119 16.5 23.5 0.00 0.00 0.00 71 1010.5
20260506134608 68 98 14.8 23.5 0.00 0.00 0.00 71 1010.3
20260506133036 68 114 14.8 26.1 0.00 0.00 0.00 72 1010.4
20260506131543 68 135 14.8 24.3 0.00 0.00 0.00 71 1010.5
20260506130041 69 150 13.9 21.7 0.00 0.00 0.00 69 1010.7
20260506124540 69 103 13.0 21.7 0.00 0.00 0.00 69 1010.6
20260506123044 69 148 14.8 21.7 0.00 0.00 0.00 69 1010.7
20260506121539 69 185 10.4 20.0 0.00 0.00 0.00 70 1010.9
20260506120043 69 94 13.0 20.0 0.00 0.00 0.00 69 1011.1
20260506114547 69 93 13.0 21.7 0.00 0.00 0.00 69 1011.0
20260506113042 69 146 14.8 21.7 0.00 0.00 0.00 70 1011.1
20260506111539 69 95 13.0 20.0 0.00 0.00 0.00 69 1011.1
20260506110038 69 103 14.8 20.0 0.00 0.00 0.00 70 1011.2
20260506104536 69 85 13.0 18.2 0.00 0.00 0.00 69 1011.4
20260506103036 69 101 13.0 18.2 0.00 0.00 0.00 68 1011.4
20260506101541 69 132 11.3 19.1 0.00 0.00 0.00 68 1011.4
20260506100039 69 121 13.0 18.2 0.00 0.00 0.00 68 1011.3
20260506094539 69 112 12.2 17.4 0.00 0.00 0.00 68 1011.2
20260506093037 69 110 11.3 17.4 0.00 0.00 0.00 68 1011.2
20260506091537 69 87 7.8 18.2 0.00 0.00 0.00 68 1010.9
20260506090042 68 90 8.7 15.6 0.00 0.00 0.00 67 1010.8
20260506084541 68 90 11.3 15.6 0.00 0.00 0.00 68 1010.9
20260506083042 67 81 8.7 12.2 0.00 0.00 0.00 69 1010.9
20260506081546 67 57 7.8 12.2 0.00 0.00 0.00 71 1010.8
20260506073041 66 34 2.6 7.0 0.00 0.00 0.00 74 1010.8
20260506071543 64 36 0.9 4.3 0.00 0.00 0.00 75 1010.7
20260506061540 58 0 0.9 3.5 0.00 0.00 0.00 82 1010.8
20260506044538 56 12 1.7 3.5 0.00 0.00 0.00 85 1009.9
20260506043040 56 60 1.7 4.3 0.00 0.00 0.00 85 1009.9
20260506041540 57 41 0.9 2.6 0.00 0.00 0.00 85 1009.7
20260506040039 57 62 0.9 3.5 0.00 0.00 0.00 86 1009.7
20260506034537 57 103 0.9 2.6 0.00 0.00 0.00 85 1009.8
20260506033036 57 105 0.0 1.7 0.00 0.00 0.00 85 1009.8
20260506031542 57 0 0.0 1.7 0.00 0.00 0.00 84 1009.8
20260506030040 58 0 0.0 1.7 0.00 0.00 0.00 85 1009.7
20260506024548 58 103 1.7 3.5 0.00 0.00 0.00 84 1009.6
20260506023045 59 0 0.9 1.7 0.00 0.00 0.00 84 1009.5
20260506021537 58 163 1.7 4.3 0.00 0.00 0.00 83 1009.7
20260506020048 60 264 0.9 3.5 0.00 0.00 0.00 83 1009.6
20260506014541 60 0 0.0 2.6 0.00 0.00 0.00 83 1009.7
20260506013039 61 255 0.0 2.6 0.00 0.00 0.00 83 1009.8
20260506011610 61 0 0.0 1.7 0.00 0.00 0.00 83 1009.7
20260506010038 61 250 0.9 2.6 0.00 0.00 0.00 83 1009.8
20260506004558 61 248 0.9 2.6 0.00 0.00 0.00 83 1009.8
20260506003043 61 248 0.9 2.6 0.00 0.00 0.00 83 1009.8